Flag for Romania Weather past 2 weeks in Cluj-Napoca, Romania

Now
64 °F

Sunny.


Feels Like: 64 °F
Forecast: 62 / 92 °F
Wind: No wind

Location: Cluj Airport-Napoca

Current Time: Aug 31, 2015 at 8:11:58 AM

Latest Report: Aug 31, 2015 at 8:00 AM


Visibility: 10 mi

Pressure: 30.18 "Hg

Humidity: 94%

Dew point: 63 °F

Location of Cluj-NapocaLocation

Historic Weather in Cluj-Napoca — Graph

°F

Cluj-Napoca temperature yesterday

Maximum temperature yesterday: 93 °F (at 4:30 PM)
Minimum temperature yesterday: 61 °F (at 6:30 AM)
Average temperature yesterday: 78 °F

Past Weeks' High & Low Weather Summary

 TemperatureHumidityPressure
High93 °F (Aug 30, 4:30 PM)100% (Aug 17, 3:00 PM)30.27 "Hg (Aug 17, 3:00 PM)
Low52 °F (Aug 24, 5:30 AM)30% (Aug 30, 3:30 PM)29.77 "Hg (Aug 16, 7:00 PM)
Average69 °F75%30.08 "Hg
* Reported Aug 16 7:00 AM — Aug 31 7:00 AM, Cluj-Napoca, Weather by CustomWeather, © 2015

Note: Actual official high and low records may vary slightly from our data, if they occured in-between our weather recording intervals... More about our weather records

Advertising

Cluj-Napoca weather history for previous 24 hours

 ConditionsComfort  
Time TempWeatherWind HumidityBarometerVisibility
7:00 AM
Mon, Aug 31
61 °FClear.3 mph100%30.18 "Hg10 mi
6:30 AM61 °FClear.5 mph100%30.18 "Hg10 mi
6:00 AM63 °FClear.3 mph100%30.18 "Hg10 mi
5:30 AM63 °FMild.No wind100%30.18 "Hg6 mi
5:00 AM66 °FClear.No wind88%30.18 "Hg10 mi
4:00 AM66 °FClear.No wind94%30.18 "Hg10 mi
3:00 AM68 °FClear.No wind88%30.18 "Hg10 mi
2:00 AM70 °FClear.5 mph83%30.18 "Hg10 mi
11:30 PM
Sun, Aug 30
73 °FClear.5 mph78%30.18 "Hg10 mi
11:00 PM73 °FClear.3 mph78%30.18 "Hg10 mi
10:30 PM73 °FClear.5 mph78%30.18 "Hg10 mi
10:00 PM75 °FClear.6 mph74%30.18 "Hg10 mi
9:30 PM77 °FClear.5 mph69%30.18 "Hg10 mi
9:00 PM79 °FSunny.3 mph65%30.18 "Hg10 mi
8:30 PM81 °FSunny.5 mph66%30.18 "Hg10 mi
8:00 PM84 °FSunny.No wind55%30.18 "Hg10 mi
7:30 PM88 °FWarm.No wind43%30.18 "HgN/A
7:00 PM90 °FSunny.No wind41%30.18 "Hg10 mi
6:30 PM91 °FSunny.No wind34%30.18 "Hg10 mi
6:00 PM91 °FPassing clouds.3 mph36%30.18 "HgN/A
5:30 PM91 °FSunny.2 mph38%30.18 "Hg10 mi
5:00 PM91 °FSunny.2 mph36%30.18 "Hg10 mi
4:30 PM93 °FSunny.No wind34%30.21 "Hg10 mi
4:00 PM91 °FSunny.1 mph32%30.21 "Hg10 mi
3:30 PM91 °FSunny.1 mph30%30.21 "Hg10 mi
3:00 PM90 °FPassing clouds.3 mph38%30.21 "HgN/A
2:30 PM90 °FSunny.1 mph38%30.24 "Hg10 mi
2:00 PM88 °FSunny.5 mph40%30.24 "Hg10 mi
1:30 PM88 °FPassing clouds.7 mph43%30.24 "HgN/A
1:00 PM86 °FPassing clouds.7 mph46%30.24 "HgN/A
12:30 PM86 °FPassing clouds.7 mph52%30.27 "HgN/A
12:00 PM84 °FPassing clouds.7 mph51%30.27 "HgN/A
11:30 AM81 °FPassing clouds.6 mph62%30.27 "HgN/A
11:00 AM79 °FPassing clouds.5 mph58%30.27 "HgN/A
10:30 AM77 °FSunny.No wind65%30.27 "Hg10 mi
10:00 AM73 °FSunny.No wind74%30.27 "Hg10 mi
9:30 AM72 °FSunny.No wind78%30.27 "Hg10 mi
9:00 AM72 °FSunny.No wind73%30.27 "Hg10 mi
8:30 AM68 °FSunny.No wind83%30.27 "Hg10 mi
8:00 AM64 °FSunny.No wind94%30.27 "Hg10 mi
Weather by CustomWeather, © 2015

See weather overviewHow to use our weather pages